AUA75U LATI-LOWW

Flight info

Callsign AUA75U
Flight time 1h 26m
Altitude 34000
Route INLOT DCT RETRA DCT OBUTI OBUTI2W
Aircraft A20N/M-SDE2E3FGHIJ1RWXY/LB1

Departure

Time 2026-04-20 19:56
Airport Tirana International Airport Mother Teresa (LATI)

Arrival

Time 2026-04-20 21:22
Airport Vienna International Airport (LOWW)
Time Latitude Longitude Altitude Speed Heading
2026-04-20 19:26 41.42064 19.71492 115 ft 0 kts 265°
2026-04-20 19:44 41.42064 19.71496 115 ft 2 kts 265°
2026-04-20 19:44 41.42066 19.71516 115 ft 2 kts 265°
2026-04-20 19:44 41.42067 19.71536 115 ft 2 kts 265°
2026-04-20 19:44 41.42068 19.71554 115 ft 1 kts 282°
2026-04-20 19:45 41.42061 19.71568 115 ft 1 kts 341°
2026-04-20 19:45 41.42055 19.71569 115 ft 1 kts
2026-04-20 19:45 41.42050 19.71569 115 ft 0 kts 355°
2026-04-20 19:47 41.42052 19.71569 115 ft 0 kts 355°
2026-04-20 19:47 41.42058 19.71569 115 ft 0 kts 354°
2026-04-20 19:47 41.42066 19.71567 114 ft 1 kts 354°
2026-04-20 19:48 41.42076 19.71566 115 ft 1 kts 354°
2026-04-20 19:48 41.42088 19.71565 114 ft 1 kts 354°
2026-04-20 19:48 41.42101 19.71563 114 ft 1 kts 355°
2026-04-20 19:48 41.42115 19.71561 114 ft 2 kts 355°
2026-04-20 19:49 41.42129 19.71560 114 ft 2 kts 355°
2026-04-20 19:49 41.42144 19.71558 114 ft 2 kts 354°
2026-04-20 19:49 41.42161 19.71555 114 ft 2 kts 352°
2026-04-20 19:49 41.42189 19.71551 114 ft 5 kts 354°
2026-04-20 19:50 41.42240 19.71546 113 ft 8 kts 356°
2026-04-20 19:50 41.42313 19.71536 112 ft 12 kts 356°
2026-04-20 19:50 41.42401 19.71526 111 ft 12 kts 354°
2026-04-20 19:50 41.42479 19.71518 111 ft 8 kts 354°
2026-04-20 19:51 41.42529 19.71510 111 ft 6 kts 353°
2026-04-20 19:51 41.42574 19.71503 111 ft 6 kts 353°
2026-04-20 19:51 41.42625 19.71497 111 ft 8 kts 355°
2026-04-20 19:51 41.42665 19.71523 111 ft 7 kts 74°
2026-04-20 19:52 41.42669 19.71600 111 ft 8 kts 85°
2026-04-20 19:52 41.42676 19.71689 111 ft 10 kts 84°
2026-04-20 19:52 41.42681 19.71758 111 ft 0 kts 85°
2026-04-20 19:54 41.42681 19.71761 111 ft 2 kts 85°
2026-04-20 19:55 41.42686 19.71838 111 ft 12 kts 86°
2026-04-20 19:55 41.42619 19.71906 113 ft 15 kts 171°
2026-04-20 19:55 41.42380 19.71944 114 ft 72 kts 172°
2026-04-20 19:55 41.41620 19.72039 122 ft 144 kts 174°
2026-04-20 19:56 41.40524 19.72187 586 ft 163 kts 172°
2026-04-20 19:56 41.39417 19.72335 1416 ft 161 kts 172°
2026-04-20 19:56 41.38327 19.72509 2200 ft 162 kts 172°
2026-04-20 19:56 41.37184 19.72683 2888 ft 172 kts 174°
2026-04-20 19:57 41.35964 19.72866 3599 ft 183 kts 175°
2026-04-20 19:57 41.34679 19.73047 4267 ft 196 kts 176°
2026-04-20 19:57 41.33239 19.73238 4771 ft 222 kts 176°
2026-04-20 19:57 41.31611 19.73450 5337 ft 247 kts 176°
2026-04-20 19:58 41.29847 19.73682 6041 ft 265 kts 177°
2026-04-20 19:58 41.27979 19.73926 6856 ft 279 kts 177°
2026-04-20 19:58 41.26035 19.74124 7763 ft 286 kts 185°
2026-04-20 19:58 41.24124 19.73483 8719 ft 285 kts 213°
2026-04-20 19:59 41.22669 19.71806 9674 ft 281 kts 239°
2026-04-20 19:59 41.21904 19.69479 10604 ft 279 kts 261°
2026-04-20 19:59 41.21797 19.66927 11348 ft 286 kts 282°
2026-04-20 19:59 41.22579 19.64473 12030 ft 296 kts 308°
2026-04-20 20:00 41.24073 19.62673 12992 ft 298 kts 327°
2026-04-20 20:00 41.26034 19.61740 13878 ft 307 kts 348°
2026-04-20 20:00 41.28146 19.61356 14712 ft 312 kts 349°
2026-04-20 20:00 41.30293 19.60914 15588 ft 315 kts 348°
2026-04-20 20:01 41.32445 19.60443 16456 ft 318 kts 347°
2026-04-20 20:01 41.34629 19.59956 17325 ft 320 kts 347°
2026-04-20 20:01 41.36830 19.59458 18157 ft 323 kts 347°
2026-04-20 20:01 41.39044 19.58952 18955 ft 326 kts 347°
2026-04-20 20:02 41.41293 19.58439 19739 ft 329 kts 347°
2026-04-20 20:02 41.43537 19.57925 20515 ft 332 kts 347°
2026-04-20 20:02 41.45796 19.57407 21261 ft 334 kts 346°
2026-04-20 20:02 41.48085 19.56880 21995 ft 337 kts 346°
2026-04-20 20:03 41.50410 19.56343 22708 ft 340 kts 346°
2026-04-20 20:03 41.52752 19.55802 23401 ft 343 kts 346°
2026-04-20 20:03 41.55085 19.55262 24074 ft 346 kts 346°
2026-04-20 20:03 41.57454 19.54714 24716 ft 349 kts 346°
2026-04-20 20:04 41.59852 19.54159 25314 ft 353 kts 346°
2026-04-20 20:04 41.62298 19.53591 25921 ft 356 kts 346°
2026-04-20 20:04 41.64728 19.53028 26511 ft 359 kts 346°
2026-04-20 20:04 41.67185 19.52460 27070 ft 363 kts 346°
2026-04-20 20:05 41.69703 19.51875 27635 ft 365 kts 346°
2026-04-20 20:05 41.72197 19.51296 28180 ft 368 kts 345°
2026-04-20 20:05 41.74725 19.50704 28695 ft 371 kts 345°
2026-04-20 20:05 41.77259 19.50112 29204 ft 373 kts 345°
2026-04-20 20:06 41.79847 19.49507 29698 ft 376 kts 345°
2026-04-20 20:06 41.82420 19.48908 30154 ft 379 kts 345°
2026-04-20 20:06 41.85027 19.48302 30654 ft 381 kts 345°
2026-04-20 20:06 41.87613 19.47699 31239 ft 379 kts 345°
2026-04-20 20:07 41.90190 19.47099 31825 ft 377 kts 345°
2026-04-20 20:07 41.92777 19.46495 32369 ft 376 kts 345°
2026-04-20 20:07 41.95321 19.45875 32826 ft 376 kts 343°
2026-04-20 20:07 41.97862 19.45082 33238 ft 375 kts 341°
2026-04-20 20:08 42.00393 19.44085 33632 ft 375 kts 338°
2026-04-20 20:08 42.02837 19.42965 33946 ft 376 kts 336°
2026-04-20 20:08 42.05313 19.41797 33978 ft 377 kts 336°
2026-04-20 20:09 42.10266 19.39451 33983 ft 378 kts 336°
2026-04-20 20:09 42.15208 19.37104 33988 ft 378 kts 336°
2026-04-20 20:10 42.20185 19.34733 33986 ft 378 kts 335°
2026-04-20 20:10 42.24985 19.31977 33985 ft 374 kts 330°
2026-04-20 20:11 42.29612 19.28842 33984 ft 373 kts 329°
2026-04-20 20:11 42.34230 19.25683 33987 ft 373 kts 329°
2026-04-20 20:12 42.38870 19.22507 33985 ft 373 kts 329°
2026-04-20 20:12 42.43471 19.19351 33986 ft 372 kts 329°
2026-04-20 20:13 42.50368 19.14610 33989 ft 371 kts 329°
2026-04-20 20:13 42.54968 19.11443 33995 ft 371 kts 329°
2026-04-20 20:14 42.59551 19.08283 33996 ft 371 kts 329°
2026-04-20 20:14 42.64162 19.05096 34002 ft 371 kts 329°
2026-04-20 20:15 42.68726 19.01938 34005 ft 370 kts 329°
2026-04-20 20:15 42.73339 18.98740 34008 ft 370 kts 329°
2026-04-20 20:16 42.77887 18.95580 34005 ft 369 kts 329°
2026-04-20 20:16 42.82471 18.92393 34007 ft 368 kts 329°
2026-04-20 20:17 42.87019 18.89224 34007 ft 368 kts 329°
2026-04-20 20:17 42.91569 18.86049 34012 ft 369 kts 329°
2026-04-20 20:18 42.96150 18.82850 34001 ft 370 kts 329°
2026-04-20 20:18 43.00697 18.79664 34006 ft 369 kts 329°
2026-04-20 20:19 43.05273 18.76455 33996 ft 368 kts 329°
2026-04-20 20:19 43.09798 18.73278 33994 ft 367 kts 329°
2026-04-20 20:20 43.14341 18.70079 34000 ft 367 kts 329°
2026-04-20 20:20 43.18872 18.66888 33997 ft 367 kts 328°
2026-04-20 20:21 43.23402 18.63688 33995 ft 367 kts 328°
2026-04-20 20:21 43.27915 18.60495 33988 ft 366 kts 328°
2026-04-20 20:22 43.32431 18.57295 33986 ft 366 kts 328°
2026-04-20 20:22 43.36968 18.54076 33979 ft 366 kts 328°
2026-04-20 20:23 43.41483 18.50866 33978 ft 366 kts 328°
2026-04-20 20:23 43.45991 18.47655 33980 ft 366 kts 328°
2026-04-20 20:24 43.50497 18.44443 33971 ft 366 kts 328°
2026-04-20 20:24 43.54998 18.41227 33976 ft 365 kts 328°
2026-04-20 20:25 43.59490 18.38012 33966 ft 364 kts 328°
2026-04-20 20:25 43.63993 18.34783 33968 ft 364 kts 328°
2026-04-20 20:26 43.68462 18.31575 33969 ft 363 kts 327°
2026-04-20 20:26 43.72967 18.28337 33969 ft 364 kts 327°
2026-04-20 20:27 43.77431 18.25120 33966 ft 363 kts 327°
2026-04-20 20:27 43.81905 18.21890 33973 ft 362 kts 327°
2026-04-20 20:28 43.86341 18.18684 33970 ft 362 kts 327°
2026-04-20 20:28 43.90823 18.15436 33964 ft 362 kts 327°
2026-04-20 20:29 43.95253 18.12223 33969 ft 361 kts 327°
2026-04-20 20:29 43.99720 18.08981 33968 ft 361 kts 327°
2026-04-20 20:30 44.04167 18.05742 33959 ft 361 kts 327°
2026-04-20 20:30 44.08614 18.02495 33957 ft 361 kts 327°
2026-04-20 20:31 44.13060 17.99250 33954 ft 361 kts 327°
2026-04-20 20:31 44.17499 17.96000 33960 ft 362 kts 327°
2026-04-20 20:32 44.21926 17.92755 33956 ft 362 kts 327°
2026-04-20 20:32 44.26400 17.89471 33963 ft 363 kts 327°
2026-04-20 20:33 44.30866 17.86188 33961 ft 364 kts 327°
2026-04-20 20:33 44.35327 17.82900 33980 ft 363 kts 327°
2026-04-20 20:34 44.39783 17.79612 33978 ft 363 kts 327°
2026-04-20 20:34 44.44250 17.76311 33983 ft 363 kts 327°
2026-04-20 20:35 44.48688 17.73022 33979 ft 364 kts 327°
2026-04-20 20:35 44.53162 17.69704 33978 ft 364 kts 327°
2026-04-20 20:36 44.57621 17.66392 33971 ft 364 kts 327°
2026-04-20 20:36 44.62093 17.63060 33973 ft 365 kts 327°
2026-04-20 20:37 44.66556 17.59731 33989 ft 365 kts 327°
2026-04-20 20:37 44.71057 17.56370 33990 ft 366 kts 327°
2026-04-20 20:38 44.75525 17.53024 33989 ft 366 kts 327°
2026-04-20 20:38 44.79989 17.49679 33999 ft 366 kts 327°
2026-04-20 20:39 44.84495 17.46293 34003 ft 365 kts 327°
2026-04-20 20:39 44.88964 17.42931 34004 ft 366 kts 327°
2026-04-20 20:40 44.93462 17.39542 34003 ft 367 kts 326°
2026-04-20 20:40 44.97916 17.36178 34011 ft 366 kts 327°
2026-04-20 20:41 45.02406 17.32779 34007 ft 365 kts 326°
2026-04-20 20:41 45.06879 17.29390 34011 ft 365 kts 326°
2026-04-20 20:42 45.11348 17.25998 34011 ft 365 kts 326°
2026-04-20 20:42 45.15798 17.22614 34011 ft 365 kts 326°
2026-04-20 20:43 45.20255 17.19216 34009 ft 365 kts 326°
2026-04-20 20:43 45.24730 17.15800 34009 ft 365 kts 326°
2026-04-20 20:44 45.29195 17.12388 34002 ft 365 kts 326°
2026-04-20 20:44 45.33624 17.08995 34007 ft 364 kts 326°
2026-04-20 20:45 45.38075 17.05579 34007 ft 363 kts 326°
2026-04-20 20:45 45.42529 17.02156 34008 ft 364 kts 326°
2026-04-20 20:46 45.46967 16.98738 34003 ft 365 kts 326°
2026-04-20 20:46 45.51441 16.95287 34010 ft 365 kts 326°
2026-04-20 20:47 45.55884 16.91851 33997 ft 365 kts 326°
2026-04-20 20:47 45.60340 16.88400 34007 ft 364 kts 326°
2026-04-20 20:48 45.64753 16.84976 34010 ft 365 kts 326°
2026-04-20 20:48 45.69220 16.81504 34008 ft 365 kts 326°
2026-04-20 20:49 45.73664 16.78047 33996 ft 365 kts 326°
2026-04-20 20:49 45.78133 16.74560 34008 ft 366 kts 326°
2026-04-20 20:50 45.82595 16.71070 33995 ft 366 kts 326°
2026-04-20 20:50 45.87052 16.67580 34005 ft 366 kts 326°
2026-04-20 20:51 45.91512 16.64085 34006 ft 366 kts 326°
2026-04-20 20:51 45.95998 16.60559 33998 ft 367 kts 326°
2026-04-20 20:52 46.00456 16.57051 34012 ft 366 kts 326°
2026-04-20 20:52 46.04918 16.53531 34019 ft 368 kts 326°
2026-04-20 20:53 46.09402 16.49991 34019 ft 367 kts 326°
2026-04-20 20:53 46.13874 16.46451 34020 ft 366 kts 326°
2026-04-20 20:54 46.18330 16.42917 34019 ft 366 kts 326°
2026-04-20 20:54 46.22776 16.39385 34018 ft 367 kts 326°
2026-04-20 20:55 46.27253 16.35823 34019 ft 367 kts 326°
2026-04-20 20:55 46.31725 16.32270 34020 ft 368 kts 326°
2026-04-20 20:56 46.34018 16.30638 33839 ft 369 kts 329°
2026-04-20 20:56 46.36372 16.29199 33510 ft 369 kts 332°
2026-04-20 20:56 46.38761 16.27958 33071 ft 370 kts 334°
2026-04-20 20:56 46.41234 16.26897 32542 ft 372 kts 337°
2026-04-20 20:57 46.43744 16.26044 31955 ft 376 kts 339°
2026-04-20 20:57 46.46329 16.25361 31314 ft 380 kts 341°
2026-04-20 20:57 46.48961 16.24724 30653 ft 382 kts 341°
2026-04-20 20:57 46.51554 16.24109 29958 ft 383 kts 341°
2026-04-20 20:58 46.54162 16.23492 29433 ft 380 kts 341°
2026-04-20 20:58 46.56755 16.22881 28928 ft 376 kts 341°
2026-04-20 20:58 46.59338 16.22273 28437 ft 372 kts 341°
2026-04-20 20:58 46.61861 16.21677 27948 ft 369 kts 341°
2026-04-20 20:59 46.64396 16.21079 27453 ft 366 kts 341°
2026-04-20 20:59 46.66886 16.20488 27002 ft 362 kts 341°
2026-04-20 20:59 46.69327 16.19908 26535 ft 359 kts 341°
2026-04-20 20:59 46.71780 16.19324 26093 ft 355 kts 341°
2026-04-20 21:00 46.74204 16.18746 25606 ft 353 kts 341°
2026-04-20 21:00 46.76606 16.18173 25142 ft 350 kts 340°
2026-04-20 21:00 46.79018 16.17596 24668 ft 348 kts 340°
2026-04-20 21:00 46.81365 16.17034 24234 ft 345 kts 340°
2026-04-20 21:01 46.83724 16.16469 23806 ft 342 kts 340°
2026-04-20 21:01 46.86082 16.15906 23376 ft 340 kts 340°
2026-04-20 21:01 46.88387 16.15351 22931 ft 338 kts 340°
2026-04-20 21:01 46.90690 16.14796 22449 ft 338 kts 341°
2026-04-20 21:02 46.93008 16.14237 21971 ft 337 kts 341°
2026-04-20 21:02 46.95308 16.13685 21509 ft 336 kts 341°
2026-04-20 21:02 46.97613 16.13130 21020 ft 335 kts 341°
2026-04-20 21:02 46.99877 16.12581 20552 ft 334 kts 341°
2026-04-20 21:03 47.02197 16.12020 20037 ft 334 kts 341°
2026-04-20 21:03 47.04464 16.11470 19550 ft 333 kts 341°
2026-04-20 21:03 47.06727 16.10918 19089 ft 332 kts 342°
2026-04-20 21:03 47.09000 16.10366 18609 ft 330 kts 342°
2026-04-20 21:04 47.11269 16.09819 18131 ft 329 kts 343°
2026-04-20 21:04 47.13525 16.09274 17672 ft 326 kts 343°
2026-04-20 21:04 47.15730 16.08742 17250 ft 323 kts 343°
2026-04-20 21:04 47.17934 16.08207 16816 ft 321 kts 343°
2026-04-20 21:05 47.20140 16.07675 16384 ft 318 kts 343°
2026-04-20 21:05 47.22293 16.07152 15966 ft 315 kts 344°
2026-04-20 21:05 47.24467 16.06623 15530 ft 313 kts 344°
2026-04-20 21:05 47.26597 16.06107 15101 ft 310 kts 344°
2026-04-20 21:06 47.28719 16.05589 14672 ft 308 kts 344°
2026-04-20 21:06 47.30817 16.05075 14244 ft 305 kts 344°
2026-04-20 21:06 47.32899 16.04569 13815 ft 303 kts 344°
2026-04-20 21:06 47.34959 16.04073 13391 ft 301 kts 346°
2026-04-20 21:07 47.37049 16.04005 12961 ft 307 kts 359°
2026-04-20 21:07 47.39144 16.04660 12870 ft 309 kts 10°
2026-04-20 21:07 47.41196 16.05638 12898 ft 309 kts 12°
2026-04-20 21:07 47.43225 16.06649 12927 ft 310 kts 12°
2026-04-20 21:08 47.45267 16.07674 12949 ft 310 kts 12°
2026-04-20 21:08 47.47313 16.08698 12977 ft 310 kts 12°
2026-04-20 21:08 47.49359 16.09721 12862 ft 309 kts 12°
2026-04-20 21:08 47.51403 16.10740 12609 ft 307 kts 12°
2026-04-20 21:09 47.53415 16.11745 12356 ft 305 kts 12°
2026-04-20 21:09 47.55416 16.12743 12104 ft 303 kts 12°
2026-04-20 21:09 47.57386 16.13725 11850 ft 302 kts 12°
2026-04-20 21:09 47.59384 16.14720 11594 ft 300 kts 12°
2026-04-20 21:10 47.61362 16.15706 11335 ft 299 kts 12°
2026-04-20 21:10 47.63327 16.16689 11089 ft 298 kts 12°
2026-04-20 21:10 47.65283 16.17668 10842 ft 296 kts 12°
2026-04-20 21:10 47.67210 16.18633 10588 ft 291 kts 12°
2026-04-20 21:11 47.69107 16.19588 10328 ft 283 kts 12°
2026-04-20 21:11 47.70956 16.20514 10074 ft 276 kts 12°
2026-04-20 21:11 47.72767 16.21420 9819 ft 275 kts 12°
2026-04-20 21:11 47.74555 16.22321 9565 ft 274 kts 14°
2026-04-20 21:12 47.76210 16.23778 9295 ft 284 kts 37°
2026-04-20 21:12 47.77394 16.26149 9038 ft 293 kts 60°
2026-04-20 21:12 47.78123 16.29015 8792 ft 294 kts 66°
2026-04-20 21:12 47.78770 16.31894 8538 ft 292 kts 67°
2026-04-20 21:13 47.79407 16.34738 8281 ft 290 kts 67°
2026-04-20 21:13 47.80048 16.37555 8027 ft 288 kts 66°
2026-04-20 21:13 47.80691 16.40359 7774 ft 287 kts 66°
2026-04-20 21:13 47.81329 16.43148 7517 ft 285 kts 68°
2026-04-20 21:14 47.81794 16.46053 7261 ft 288 kts 77°
2026-04-20 21:14 47.82078 16.48989 6932 ft 286 kts 79°
2026-04-20 21:14 47.82335 16.51870 6602 ft 282 kts 80°
2026-04-20 21:14 47.82295 16.54773 6268 ft 281 kts 95°
2026-04-20 21:15 47.82189 16.57607 5925 ft 267 kts 77°
2026-04-20 21:15 47.82723 16.60102 5594 ft 248 kts 63°
2026-04-20 21:15 47.83344 16.62423 5258 ft 235 kts 65°
2026-04-20 21:15 47.83850 16.64689 4988 ft 227 kts 68°
2026-04-20 21:16 47.84494 16.66754 4949 ft 214 kts 44°
2026-04-20 21:16 47.85640 16.67955 4951 ft 192 kts 15°
2026-04-20 21:16 47.86923 16.68262 4960 ft 187 kts 353°
2026-04-20 21:16 47.88187 16.67874 4968 ft 186 kts 343°
2026-04-20 21:17 47.89430 16.67355 4944 ft 184 kts 342°
2026-04-20 21:17 47.90675 16.66823 4773 ft 187 kts 343°
2026-04-20 21:17 47.91933 16.66288 4417 ft 189 kts 343°
2026-04-20 21:17 47.93189 16.65757 4116 ft 181 kts 343°
2026-04-20 21:18 47.94347 16.65267 3795 ft 167 kts 343°
2026-04-20 21:18 47.95425 16.64809 3421 ft 155 kts 344°
2026-04-20 21:18 47.96431 16.64389 3069 ft 147 kts 345°
2026-04-20 21:18 47.97364 16.63997 2888 ft 134 kts 345°
2026-04-20 21:19 47.98259 16.63631 2805 ft 131 kts 346°
2026-04-20 21:19 47.99144 16.63261 2656 ft 132 kts 345°
2026-04-20 21:19 48.00019 16.62884 2453 ft 131 kts 345°
2026-04-20 21:20 48.01776 16.62132 2068 ft 130 kts 345°
2026-04-20 21:20 48.02638 16.61766 1888 ft 130 kts 345°
2026-04-20 21:20 48.03507 16.61399 1716 ft 129 kts 345°
2026-04-20 21:20 48.04376 16.61031 1539 ft 129 kts 344°
2026-04-20 21:21 48.05237 16.60658 1359 ft 129 kts 344°
2026-04-20 21:21 48.06102 16.60302 1210 ft 129 kts 346°
2026-04-20 21:21 48.06976 16.59942 1024 ft 128 kts 345°
2026-04-20 21:21 48.07830 16.59567 877 ft 128 kts 347°
2026-04-20 21:22 48.08684 16.59211 680 ft 127 kts 346°
2026-04-20 21:22 48.09514 16.58858 610 ft 117 kts 346°
2026-04-20 21:22 48.10035 16.58642 609 ft 47 kts 345°
2026-04-20 21:22 48.10218 16.58564 609 ft 19 kts 345°
2026-04-20 21:23 48.10343 16.58489 609 ft 19 kts 327°
2026-04-20 21:23 48.10430 16.58342 609 ft 19 kts 299°
2026-04-20 21:23 48.10504 16.58174 609 ft 19 kts 324°
2026-04-20 21:23 48.10630 16.58109 610 ft 19 kts 345°
2026-04-20 21:24 48.10758 16.58057 609 ft 19 kts 348°
2026-04-20 21:24 48.10847 16.58018 610 ft 11 kts 343°
2026-04-20 21:24 48.10930 16.57980 609 ft 13 kts 343°
2026-04-20 21:24 48.11022 16.57942 609 ft 14 kts 346°
2026-04-20 21:25 48.11118 16.57903 609 ft 14 kts 346°
2026-04-20 21:25 48.11220 16.57861 610 ft 15 kts 344°
2026-04-20 21:25 48.11324 16.57815 609 ft 16 kts 343°
2026-04-20 21:25 48.11429 16.57768 609 ft 15 kts 345°
2026-04-20 21:26 48.11534 16.57729 610 ft 15 kts 346°
2026-04-20 21:26 48.11643 16.57683 609 ft 16 kts 344°
2026-04-20 21:26 48.11754 16.57633 610 ft 16 kts 344°
2026-04-20 21:26 48.11832 16.57547 610 ft 11 kts 275°
2026-04-20 21:27 48.11811 16.57426 609 ft 12 kts 257°
2026-04-20 21:27 48.11829 16.57295 610 ft 13 kts 294°
2026-04-20 21:27 48.11853 16.57156 610 ft 14 kts 285°
2026-04-20 21:27 48.11894 16.57014 609 ft 15 kts 293°
2026-04-20 21:28 48.11914 16.56951 609 ft 0 kts 296°
2026-04-20 21:28 48.11916 16.56948 609 ft 0 kts 296°
2026-04-20 21:28 48.11917 16.56937 610 ft 1 kts 272°
2026-04-20 21:28 48.11911 16.56915 610 ft 3 kts 229°
2026-04-20 21:29 48.11883 16.56891 610 ft 5 kts 208°
2026-04-20 21:29 48.11860 16.56874 609 ft 0 kts 205°
2026-04-20 21:29 48.11860 16.56873 609 ft 0 kts 205°